Weather History for KBKL - March, 2013

Change the Weather History Date:

Sunday, March 17, 2013

  Actual Average Record
Temperature  
Mean Temperature 29 °F -  
Max Temperature 32 °F 42 °F 75 °F (2012)
Min Temperature 28 °F 29 °F 14 °F (2014)
Degree Days  
Heating Degree Days 36    
Moisture  
Dew Point 23 °F    
Average Humidity 76    
Maximum Humidity 88    
Minimum Humidity 64    
Precipitation  
Precipitation 0.08 in - - ()
Sea Level Pressure  
Sea Level Pressure 30.16 in    
Wind  
Wind Speed 8 mph (North)    
Max Wind Speed 16 mph    
Max Gust Speed 21 mph    
Visibility 10 miles    
Events      
Averages and records for this station are not official NWS values.
T = Trace of Precipitation, MM = Missing Value Source: NWS Daily Summary

Daily Weather History Graph

Daily Weather History Graph

Search for Another Location

Airport or City:

Trip Planner

Search our weather history database for the weather conditions in past years. The results will help you decide how hot, cold, wet, or windy it might be!

Date:

Astronomy

Mar. 17, 2013 Rise Set
Actual Time 7:34 AM EDT 7:35 PM EDT
Civil Twilight 7:07 AM EDT 8:03 PM EDT
Nautical Twilight 6:34 AM EDT 8:35 PM EDT
Astronomical Twilight 6:02 AM EDT 9:08 PM EDT
Moon 10:42 AM EDT (3/17) 12:46 AM EDT (3/17)
Length of Visible Light 12h 56m
Length of Day
12h 01m
Waxing Crescent, 31% of the Moon is Illuminated
Mar 17
Waxing Crescent
Mar 19
First Quarter
Mar 27
Full
Apr 3
Last Quarter
Apr 10
New

Hourly Weather History & Observations

Time (EDT) Temp. Windchill Dew Point Humidity Pressure Visibility Wind Dir Wind Speed Gust Speed Precip Events Conditions
12:24 AM 30.2 °F - 24.8 °F 80% 30.01 in 10.0 mi Calm Calm - N/A   Overcast
12:53 AM 30.0 °F - 24.1 °F 79% 30.04 in 10.0 mi Calm Calm - N/A   Overcast
1:53 AM 30.0 °F 24.1 °F 25.0 °F 82% 30.05 in 10.0 mi WSW 5.8 mph - N/A   Overcast
2:28 AM 30.2 °F 25.4 °F 24.8 °F 80% 30.03 in 10.0 mi WSW 4.6 mph - N/A   Overcast
2:53 AM 30.0 °F 24.1 °F 25.0 °F 82% 30.06 in 10.0 mi West 5.8 mph - N/A   Overcast
3:22 AM 30.2 °F 23.4 °F 26.6 °F 86% 30.05 in 10.0 mi WSW 6.9 mph - N/A   Overcast
3:53 AM 30.0 °F 22.4 °F 27.0 °F 88% 30.07 in 10.0 mi West 8.1 mph - N/A   Overcast
4:19 AM 30.2 °F 22.6 °F 26.6 °F 86% 30.05 in 10.0 mi West 8.1 mph - N/A   Overcast
4:53 AM 30.9 °F 22.2 °F 27.0 °F 85% 30.07 in 10.0 mi West 10.4 mph - N/A   Overcast
5:10 AM 30.2 °F 20.8 °F 26.6 °F 86% 30.05 in 10.0 mi WNW 11.5 mph - N/A   Overcast
5:53 AM 30.9 °F 24.3 °F 24.1 °F 76% 30.08 in 10.0 mi WNW 6.9 mph - N/A   Overcast
6:53 AM 30.9 °F 22.8 °F 25.0 °F 79% 30.11 in 10.0 mi WNW 9.2 mph - N/A   Overcast
7:53 AM 30.9 °F 20.2 °F 25.0 °F 79% 30.14 in 10.0 mi NNW 15.0 mph - N/A   Overcast
8:53 AM 28.9 °F 17.7 °F 25.0 °F 85% 30.17 in 10.0 mi North 15.0 mph - N/A   Overcast
9:53 AM 30.0 °F 18.7 °F 19.0 °F 64% 30.20 in 10.0 mi North 16.1 mph 20.7 mph N/A   Overcast
10:53 AM 28.9 °F 18.2 °F 21.9 °F 75% 30.24 in 10.0 mi North 13.8 mph - N/A   Overcast
11:41 AM 28.4 °F 17.5 °F 21.2 °F 74% 30.22 in 10.0 mi NNE 13.8 mph - N/A   Overcast
11:53 AM 30.0 °F 20.5 °F 21.9 °F 72% 30.24 in 10.0 mi NNE 11.5 mph - N/A   Overcast
12:53 PM 30.0 °F 19.5 °F 23.0 °F 75% 30.25 in 10.0 mi NNE 13.8 mph - 0.04 in   Mostly Cloudy
1:08 PM 30.2 °F 20.2 °F 21.2 °F 69% 30.22 in 10.0 mi NNE 12.7 mph - 0.02 in   Scattered Clouds
1:53 PM 30.9 °F 21.2 °F 23.0 °F 72% 30.24 in 10.0 mi NNE 12.7 mph - 0.04 in   Clear
2:53 PM 30.9 °F 20.7 °F 21.9 °F 69% 30.23 in 10.0 mi NNE 13.8 mph - N/A   Clear
3:53 PM 30.9 °F 20.7 °F 21.9 °F 69% 30.23 in 10.0 mi NNE 13.8 mph - N/A   Clear
4:53 PM 30.0 °F 19.1 °F 21.0 °F 69% 30.22 in 10.0 mi NE 15.0 mph - N/A   Clear
5:53 PM 30.0 °F 18.7 °F 21.0 °F 69% 30.22 in 10.0 mi NNE 16.1 mph - N/A   Clear
6:53 PM 28.9 °F 17.3 °F 21.0 °F 72% 30.23 in 10.0 mi NE 16.1 mph - N/A   Clear
7:53 PM 28.9 °F 18.6 °F 19.9 °F 69% 30.22 in 10.0 mi NE 12.7 mph - N/A   Clear
8:53 PM 28.0 °F 18.6 °F 19.9 °F 72% 30.24 in 10.0 mi ENE 10.4 mph - N/A   Clear
9:53 PM 28.0 °F 18.6 °F 19.0 °F 69% 30.24 in 10.0 mi ENE 10.4 mph - N/A   Clear
10:53 PM 28.0 °F 18.1 °F 18.0 °F 66% 30.23 in 10.0 mi ENE 11.5 mph - N/A   Clear
11:53 PM 28.0 °F 19.3 °F 18.0 °F 66% 30.20 in 10.0 mi ENE 9.2 mph - N/A   Clear